When you browse on this site, cookies collect data to enhance your experience and personalize the content and advertising you see.
Visit our Privacy Policy to learn more. By continuing to use the site, you agree to this use of cookies and data.
  • In Netherlands
  • List of Countries
  • For 7 days
  • Water Temperature
  • Satellite Maps
  • Weather Map
  • Weather Widgets
  • user-avatar
    Login

    Hourly Weather Tyrgowishte

    Today, 17 July, Wednesday

    Time Temperature Precipitation Wind Pressure Humidity
    00:00 +18°C° 0 mm 1 mps 740 mmHg 74%
    01:00 +18°C° 0 mm 1 mps 740 mmHg 73%
    02:00 +16°C° 0 mm 1 mps 740 mmHg 74%
    03:00 +16°C° 0 mm 1 mps 740 mmHg 74%
    04:00 +15°C° 0 mm 1 mps 740 mmHg 74%
    05:00 +15°C° 0 mm 1 mps 740 mmHg 74%
    06:00 +18°C° 0 mm 1 mps 740 mmHg 69%
    07:00 +20°C° 0 mm 1 mps 740 mmHg 64%
    08:00 +22°C° 0 mm 1 mps 740 mmHg 59%
    09:00 +24°C° 0 mm 2 mps 740 mmHg 55%
    10:00 +25°C° 0 mm 3 mps 740 mmHg 51%
    11:00 +26°C° 0 mm 3 mps 740 mmHg 47%
    12:00 +27°C° 0 mm 3 mps 740 mmHg 47%
    13:00 +27°C° 0 mm 3 mps 740 mmHg 46%
    14:00 +27°C° 0 mm 3 mps 739 mmHg 45%
    15:00 +27°C° 0 mm 3 mps 739 mmHg 46%
    16:00 +27°C° 0 mm 3 mps 739 mmHg 47%
    17:00 +27°C° 0 mm 2 mps 739 mmHg 48%
    18:00 +26°C° 0 mm 2 mps 739 mmHg 53%
    19:00 +24°C° 0 mm 1 mps 739 mmHg 58%
    20:00 +20°C° 0 mm 0 mps 739 mmHg 63%
    21:00 +22°C° 0 mm 1 mps 739 mmHg 66%
    22:00 +21°C° 0 mm 1 mps 739 mmHg 69%
    23:00 +20°C° 0 mm 1 mps 739 mmHg 72%

    Tomorrow, 18 July, Thursday

    Time Temperature Precipitation Wind Pressure Humidity
    00:00 +19°C° 0 mm 1 mps 739 mmHg 74%
    01:00 +19°C° 0 mm 1 mps 739 mmHg 75%
    02:00 +18°C° 0 mm 1 mps 739 mmHg 77%
    03:00 +18°C° 0 mm 1 mps 739 mmHg 79%
    04:00 +16°C° 0 mm 1 mps 739 mmHg 80%
    05:00 +16°C° 0 mm 2 mps 739 mmHg 82%
    06:00 +18°C° 0 mm 2 mps 740 mmHg 76%
    07:00 +19°C° 0 mm 2 mps 740 mmHg 71%
    08:00 +21°C° 0 mm 2 mps 740 mmHg 66%
    09:00 +24°C° 0 mm 3 mps 741 mmHg 61%
    10:00 +25°C° 0 mm 3 mps 741 mmHg 56%
    11:00 +27°C° 0 mm 3 mps 741 mmHg 51%
    12:00 +28°C° 0 mm 2 mps 741 mmHg 48%
    13:00 +28°C° 0 mm 2 mps 741 mmHg 45%
    14:00 +29°C° 0 mm 2 mps 741 mmHg 42%
    15:00 +29°C° 0 mm 1 mps 741 mmHg 43%
    16:00 +29°C° 0 mm 1 mps 741 mmHg 43%
    17:00 +29°C° 0 mm 1 mps 741 mmHg 44%
    18:00 +27°C° 0 mm 1 mps 742 mmHg 51%
    19:00 +24°C° 0 mm 1 mps 742 mmHg 58%
    20:00 +22°C° 0 mm 1 mps 742 mmHg 65%
    21:00 +22°C° 0 mm 1 mps 742 mmHg 68%
    22:00 +21°C° 0 mm 1 mps 743 mmHg 71%
    23:00 +20°C° 0 mm 1 mps 743 mmHg 74%

    Day after tomorrow, 19 July, Friday

    Time Temperature Precipitation Wind Pressure Humidity
    00:00 +20°C° 0 mm 1 mps 743 mmHg 77%
    01:00 +19°C° 0 mm 1 mps 743 mmHg 79%
    02:00 +19°C° 0 mm 1 mps 743 mmHg 81%
    03:00 +19°C° 0 mm 1 mps 743 mmHg 82%
    04:00 +19°C° 0 mm 1 mps 743 mmHg 82%
    05:00 +18°C° 0 mm 1 mps 743 mmHg 83%
    06:00 +21°C° 0 mm 1 mps 744 mmHg 75%
    07:00 +23°C° 0 mm 1 mps 744 mmHg 67%
    08:00 +25°C° 0 mm 1 mps 744 mmHg 60%
    09:00 +26°C° 0 mm 2 mps 745 mmHg 53%
    10:00 +28°C° 0 mm 2 mps 745 mmHg 47%
    11:00 +29°C° 0 mm 2 mps 745 mmHg 40%
    12:00 +30°C° 0 mm 2 mps 745 mmHg 38%
    13:00 +31°C° 0 mm 2 mps 745 mmHg 36%
    14:00 +31°C° 0 mm 2 mps 744 mmHg 35%
    15:00 +31°C° 0 mm 2 mps 744 mmHg 36%
    16:00 +31°C° 0 mm 2 mps 744 mmHg 37%
    17:00 +31°C° 0 mm 2 mps 744 mmHg 39%
    18:00 +28°C° 0 mm 3 mps 744 mmHg 47%
    19:00 +26°C° 0 mm 3 mps 744 mmHg 54%
    20:00 +22°C° 0 mm 3 mps 744 mmHg 62%
    21:00 +21°C° 0 mm 3 mps 745 mmHg 64%
    22:00 +20°C° 0 mm 2 mps 745 mmHg 65%
    23:00 +19°C° 0 mm 2 mps 745 mmHg 67%

    20 July, Saturday

    Time Temperature Precipitation Wind Pressure Humidity
    00:00 +19°C° 0 mm 2 mps 745 mmHg 67%
    01:00 +20°C° 0 mm 1 mps 745 mmHg 67%
    02:00 +19°C° 0 mm 1 mps 745 mmHg 66%
    03:00 +19°C° 0 mm 1 mps 745 mmHg 64%
    04:00 +19°C° 0 mm 1 mps 745 mmHg 62%
    05:00 +19°C° 0 mm 1 mps 745 mmHg 60%
    06:00 +21°C° 0 mm 1 mps 745 mmHg 55%
    07:00 +23°C° 0 mm 1 mps 745 mmHg 50%
    08:00 +26°C° 0 mm 1 mps 746 mmHg 45%
    09:00 +27°C° 0 mm 2 mps 746 mmHg 42%
    10:00 +29°C° 0 mm 2 mps 746 mmHg 40%
    11:00 +30°C° 0 mm 3 mps 746 mmHg 37%
    12:00 +31°C° 0 mm 2 mps 746 mmHg 36%
    13:00 +31°C° 0 mm 2 mps 746 mmHg 35%
    14:00 +32°C° 0 mm 2 mps 746 mmHg 34%
    15:00 +32°C° 0 mm 2 mps 746 mmHg 35%
    16:00 +31°C° 0 mm 2 mps 745 mmHg 36%
    17:00 +31°C° 0 mm 2 mps 745 mmHg 38%
    18:00 +29°C° 0 mm 2 mps 745 mmHg 43%
    19:00 +26°C° 0 mm 2 mps 746 mmHg 49%
    20:00 +24°C° 0 mm 3 mps 746 mmHg 55%
    21:00 +23°C° 0 mm 2 mps 746 mmHg 56%
    22:00 +21°C° 0 mm 2 mps 746 mmHg 57%
    23:00 +21°C° 0 mm 1 mps 746 mmHg 58%

    21 July, Sunday

    Time Temperature Precipitation Wind Pressure Humidity
    00:00 +21°C° 0 mm 1 mps 746 mmHg 58%
    01:00 +21°C° 0 mm 1 mps 746 mmHg 58%
    02:00 +20°C° 0 mm 1 mps 746 mmHg 58%
    03:00 +18°C° 0 mm 0 mps 746 mmHg 59%
    04:00 +18°C° 0 mm 0 mps 746 mmHg 59%
    05:00 +18°C° 0 mm 0 mps 746 mmHg 59%
    06:00 +20°C° 0 mm 0 mps 746 mmHg 55%
    07:00 +23°C° 0 mm 0 mps 746 mmHg 51%
    08:00 +25°C° 0 mm 0 mps 746 mmHg 46%
    09:00 +27°C° 0 mm 0 mps 746 mmHg 42%
    10:00 +30°C° 0 mm 1 mps 746 mmHg 38%
    11:00 +32°C° 0 mm 1 mps 747 mmHg 34%
    12:00 +32°C° 0 mm 1 mps 746 mmHg 34%
    13:00 +33°C° 0 mm 1 mps 746 mmHg 33%
    14:00 +33°C° 0 mm 1 mps 746 mmHg 32%
    15:00 +34°C° 0 mm 2 mps 746 mmHg 34%
    16:00 +34°C° 0 mm 2 mps 746 mmHg 37%
    17:00 +32°C° 0 mm 2 mps 745 mmHg 39%
    18:00 +30°C° 0 mm 2 mps 745 mmHg 43%
    19:00 +28°C° 0 mm 1 mps 745 mmHg 48%
    20:00 +26°C° 0 mm 1 mps 745 mmHg 52%
    21:00 +25°C° 0 mm 1 mps 746 mmHg 54%
    22:00 +24°C° 0 mm 1 mps 746 mmHg 57%
    23:00 +23°C° 0 mm 1 mps 746 mmHg 59%

    22 July, Monday

    Time Temperature Precipitation Wind Pressure Humidity
    00:00 +23°C° 0 mm 1 mps 745 mmHg 60%
    01:00 +22°C° 0 mm 1 mps 745 mmHg 60%
    02:00 +22°C° 0 mm 1 mps 745 mmHg 61%
    03:00 +22°C° 0 mm 1 mps 745 mmHg 62%
    04:00 +22°C° 0 mm 1 mps 745 mmHg 63%
    05:00 +22°C° 0 mm 1 mps 745 mmHg 63%
    06:00 +24°C° 0 mm 1 mps 745 mmHg 59%
    07:00 +26°C° 0 mm 1 mps 745 mmHg 55%
    08:00 +28°C° 0 mm 1 mps 745 mmHg 51%
    09:00 +30°C° 0 mm 1 mps 745 mmHg 47%
    10:00 +31°C° 0 mm 2 mps 745 mmHg 44%
    11:00 +34°C° 0 mm 2 mps 745 mmHg 40%
    12:00 +34°C° 0 mm 2 mps 745 mmHg 40%
    13:00 +34°C° 0 mm 2 mps 744 mmHg 39%
    14:00 +35°C° 0 mm 2 mps 744 mmHg 38%
    15:00 +34°C° 0 mm 2 mps 743 mmHg 40%
    16:00 +32°C° 0 mm 2 mps 743 mmHg 43%
    17:00 +32°C° 0 mm 2 mps 743 mmHg 45%
    18:00 +30°C° 0 mm 2 mps 743 mmHg 50%
    19:00 +29°C° 0 mm 2 mps 743 mmHg 54%
    20:00 +27°C° 0 mm 1 mps 743 mmHg 59%
    21:00 +27°C° 0 mm 1 mps 743 mmHg 60%
    22:00 +26°C° 0 mm 1 mps 743 mmHg 61%
    23:00 +25°C° 0 mm 2 mps 743 mmHg 61%
    Show more